{"data":{"norad_id":59870,"epoch":"2026-09-21T15:45:16.105824Z","epoch_age_seconds":74556,"freshness":"FRESH","line1":"1 59870U 24098N   26264.65643641  .00000133  00000+0  14346-4 0  9995","line2":"2 59870  42.9997 247.2145 0001211 282.9360  77.1357 15.27577339131869","mean_motion":15.27577339,"eccentricity":0.0001211,"inclination_deg":42.9997,"raan_deg":247.2145,"arg_perigee_deg":282.936,"mean_anomaly_deg":77.1357,"bstar":1.4346e-5,"rev_number":13186,"period_min":94.266912923877,"perigee_km":482.22617344135,"apogee_km":483.88795464367,"semimajor_km":6861.1940640425,"source":"CELESTRAK","updated_at":"2026-09-22T09:00:49.102799Z"}}